Location: Freistadt
(48.5112°N, 14.5013°E)
Time: 20:54:50
(UTC+02:00)

VELOX 1 - Pass Details

Date: 26 February 2024
Orbit: 607 x 620 km, 98.4° (Epoch: 13 April)

Event Time Altitude Azimuth Distance (km) Brightness Sun altitude
Rises 19:30:43 0° 19° (NNE) 2,882 ? -19.0°
Reaches altitude 10° 19:33:00 10° 26° (NNE) 1,971 ? -19.4°
Enters shadow 19:34:22 19° 34° (NE) 1,451 ? -19.6°
Exits shadow 19:42:35 - 178° (S) 2,507 ? -21.0°
Sets 19:43:26 0° 180° (S) 2,851 ? -21.1°
